Voltar ao catálogo

USA 194

AtivoMilitarLEO
NORAD 31701·PAYLOAD·🇺🇸 United States

Lançado Jun 15, 2007 de Cape Canaveral Space Force Station

Loading…

Próximas Passagens (próximas 24 horas)

TLE

ObsoletoSource: Mike McCants

Época: Sep 3, 2026, 19:18 UTC

1 31701U 07027A   26246.80443680 0.00000000  00000-0  00000-0 0    04
2 31701  63.3660 124.5002 0454668  25.4567 334.5433 13.40990357    00

Acompanhe USA 194 em tempo real com AllMySat

Download on the App Store